Location: Cactus School
(34.5700°N, 118.0931°W)
Time: 02:16:34
(UTC-08:00)

A-11 Canister half - Pass Details

Date: 21 November 2019
Orbit: 1515 x 1685 km, 47.2° (Epoch: 05 December)

Event Time Altitude Azimuth Distance (km) Brightness Sun altitude
Rises 17:04:20 0° 244° (WSW) 4,845 14.4 -4.6°
Reaches altitude 10° 17:07:28 10° 247° (WSW) 3,880 13.1 -5.2°
Maximum altitude 17:17:26 69° 330° (NNW) 1,770 9.4 -7.1°
Drops below altitude 10° 17:27:36 10° 53° (NE) 3,952 10.5 -9.1°
Enters shadow 17:28:07 - 54° (NE) 4,108 10.6 -9.2°
